Погода Усть-Щугор

Погода Усть-Щугор : погода сейчас, прогноз погоды и архив. Всё, что Вы хотите узнать о погоде Усть-Щугор!

Поиск расширенной информации на нашем сайте:

Другие новости

Новости СМИ2

Главная страница сайта

Новости сайта

02.10.2013

Напоминаем, что на нашем новом сайте вы можете получить высокодетализированные прогнозы погоды по пунктам России, СНГ и мира (включающие важные для авиации метеовеличины, такие как направление и скорость ветра, видимость, явления погоды, количество и форма облачности, нижняя и верхняя граница облачности), а также ознакомиться с разнообразными материалами по авиационной метеорологии и подборкой полезных ссылок на эту тему.

Сайт Метеоцентр.Азия посвящён разработке технологий оптимизации авиаметеорологического обслуживания, включая проектирование и перспективное создание нескольких автоматизированных авиаметеорологических систем:
- система выпуска высокодетальных прогностических карт явлений погоды для нижнего воздушного пространства по России и ближнему зарубежью;
- система верификации прогнозов TAF (выпускаемых синоптиками официальных АМСГ РФ и ближнего зарубежья) и AUTOTAF (выпускаемых сайтом Метеоцентр.Азия) - выявление ошибок, онлайн-сопоставление с фактической погодой METAR, автоматическое внесение коррективов в прогнозы при резком отклонении фактической погоды от прогноза, подсчёт оправдываемости прогнозов по элементам и в целом;
- система обработки, анализа и отображения авиаметеорологической информации для применения провайдерами метеорологической информации.

Рекомендуем: Устройство автосервиса мелкий кузовной ремонт клипарт аэрография.

Погода Усть-Щугор - сегодня

Время (UTC), дата Ветер
(°,м/с) 
Видим.   Явления Облачность Т
(°С)
Тd
(°С)
f(%) Тe
(°С)
Pmin
(гПа)
dP
(гПа)
Po
(мм)
O2
(г/м3)
Тmin Tmax R s Состояние
почвы
03 19.02.17 190 (Ю) 4000 м  слаб. снег  10/0 средняя 
[As op]
-7.8 -9.2 90 -11  984.7  -0.7  732  304  -8.7    68  неравномерный
сухой снег
100% 
06 19.02.17 190 (Ю) 4000 м  слаб. снег  10/0 средняя 
[Ac As]
-7.9 -9 92 -11  985.1  0.4  732  305           
09 19.02.17 240 (ЮЗ) 4000 м  слаб. снег  10/0 средняя 
[Ac As]
-7.1 -8.4 90 -9  985.9  0.8  733  304           
12 19.02.17 330 (СЗ) 4000 м  слаб. снег  10/4 300 м средняя 
[Frnb|Ac As]
-9.3 -11.7 83 -14  988.9  2.9  735  308           
15 19.02.17 340 (С) 5{11}  4000 м  слаб. снег  10/0 средняя 
[Ac As]
-14.2 -17.2 78 -20  993  3.9  738  315    -6.9     
03 20.02.17 тихо ()   10 км    10/0 средняя 
[Ac As]
-29.9 -32.7 76 -30  999  742  337  -29.9    0.6  69  неравномерный
сухой снег
100% 
06 20.02.17 тихо ()   20000 м    10/0 средняя 
[Ac As]
-25.6 -28.2 79 -26  998.2  -0.6  741  331           
09 20.02.17 тихо ()   20000 м    8/0 средняя, верхняя 
[Ac cast|Cs]
-18.4 -21.3 78 -18  996.1  -1.8  740  321           
12 20.02.17 060 (СВ) 20000 м    6/0 средняя, верхняя 
[As trans|Cs]
-17.6 -20.3 79 -20  993.8  -2.2  738  319           
15 20.02.17 030 (СВ) 10 км    6/0 верхняя 
[Ci fib]
-23 -24.8 85 -26  991.8  -2.2  736  326    -15.8       
03 21.02.17 030 (СВ) 10 км    10/0 средняя 
[Ac und]
-27 -29.7 78 -34  989.7  1.1  735  330  -27      69  неравномерный
сухой снег
100% 
06 21.02.17 020 (С) 20000 м    3/0 средняя, верхняя 
[Ac As|Cc]
-27.2 -30.2 76 -32  991.1  1.4  736  331  -27.9         
09 21.02.17 030 (СВ) 20000 м    10/0 средняя, верхняя 
[Ac lent|Cc]
-22.7 -26.3 72 -26  992.4  1.4  737  326           
12 21.02.17 030 (СВ) 20000 м    10/0 верхняя 
[Cc]
-22 -25.3 74 -25  994.3  738  325           
15 21.02.17 010 (С) 10 км    3/0 верхняя 
[Ci fib]
-30.9 -33.7 76 -32  995.6  0.9  739  338    -21.5       
03 22.02.17 030 (СВ) 10 км    10/0 средняя 
[Ac As]
-30.1 -33.3 74 -36  995.6  -1  738  336  -33.9      69  неравномерный
сухой снег
100% 
06 22.02.17 020 (С) 4000 м  слаб. снег  10/0 средняя 
[Ac As]
-26.6 -29.5 76 -32  993.6  -0.8  738  331           
09 22.02.17 010 (С) 4000 м  снег  10/0 средняя 
[As op]
-20.8 -23.2 81 -25  991.9  -1.4  737  323           
12 22.02.17 010 (С) 1000 м  ливневой снег  10/8 210 м кучево-дожд., средняя 
[Cb cap|As op]
-19.7 -21.9 83 -25  991.7  -0.2  737  321           
15 22.02.17 020 (С) 1000 м  снег{ливн. осадки}  10/0 средняя 
[As op]
-19.6 -21.8 83 -26  993.1  1.4  738  322    -19.5     
03 23.02.17 220 (ЮЗ) 10 км    1/0 верхняя 
[Cc]
-34.5 -38.1 70 -35  1007.5  2.4  748  347  -34.5    0.6  77  неравномерный
сухой снег
100% 
06 23.02.17 240 (ЮЗ) 20000 м    ясно 
-31.6 -34.9 73 -32  1010.1  2.6  750  344           
09 23.02.17 350 (С) 20000 м    1/0 верхняя 
[Ci fib]
-22.7 -25.2 80 -23  1010.2  0.5  750  331           
12 23.02.17 010 (С) 20000 м    1/0 верхняя 
[Ci fib]
-21 -23.9 77 -24  1010.7  0.5  751  329           
15 23.02.17 040 (СВ) 10 км    ясно 
-30.4 -33.4 75 -31  1010.6  -0.4  750  342    -20.3       
Время (UTC), дата Ветер
(°,м/с) 
Видим.   Явления Облачность Т
(°С)
Тd
(°С)
f(%) Тe
(°С)
Pmin
(гПа)
dP
(гПа)
Po
(мм)
O2
(г/м3)
Тmin Tmax R s Состояние
почвы

Для получения пояснительной информации подведите курсор к названию столбца.

ПОГОДА Усть-Щугор - архив

Всё, что Вы хотите узнать о погоде Усть-Щугор - удобно и подробно!

Выберите нужную дату (начиная с 1 января 2015* года) и нажмите кнопку "Найти".
Будут отображены архивные сводки погоды по пункту Усть-Щугор, начиная с указанной даты.


Отображать данные в формате CSV (для использования в таблицах Excel)


Внимание! Наш архив погоды предназначен исключительно для личного некоммерческого использования в познавательных целях. Если Вам необходимы официальные справки о состоянии погоды (для производственных, юридических, коммерческих и т.п. целей), обращайтесь в органы Росгидромета.

*Примечание: данная дата относится к архиву по метеостанциям СССР (Россия, СНГ, Балтия).
Архив по метеостанциям Зарубежной Европы и Азии (кроме Китая) хранится 10 дней, по другим регионам земного шара (Китай, Африка, Америка, Австралия, Океания) - 1 день.

Усть-Щугор - район местоположения метеостанции


Название, широта, долгота, высота метеостанции:
Усть-Щугор 64.3°ш. 57.6°д. 75 м над ур. моря [Российская Федерация]

Дополнительная информация

В oтличие oт бoльшинства пoгoдных сайтoв мы публикуем пoдрoбную метеoинфoрмацию в детальнoм прoфессиoнальнoм фoрмате.

Характеристики температуры и влажнoсти вoздуха измеряются на высoте 2 м в тени вдали oт зданий и деревьев.
Скoрoсть ветра измеряется на высoте 10 м (на урoвне рoста челoвека скoрoсть ветра ниже в 1.5-2 раза). Если метеoстанция нахoдится в гoрoде или в лесу, тo скoрoсть ветра занижена на 2-4 м/с пo сравнению с oткрытым местoм. Скoрoсть ветра над акватoриями крупных рек и oзёр, а также на вершинах хoлмoв на 2-5 м/с выше, чем в oбычных услoвиях.
Атмoсфернoе давление в разных тoчках местнoсти мoжет значительнo oтличаться oт давления на метеoстанции, в зависимoсти oт услoвий рельефа (при пoдъёме на 10 м давление пoнижается примернo на 1 мм рт.ст.).